Time,TemperatureF,DewpointF,PressureIn,WindDirection,WindDirectionDegrees,WindSpeedMPH,WindSpeedGustMPH,Humidity,HourlyPrecipIn,Conditions,Clouds,dailyrainin,SoftwareType,DateUTC
2013-03-08 00:22:00,40.0,40.0,-100.00,North,-999,0.0,-999.0,98,0.00,,,-99.99,,2013-03-08 06:22:00,
2013-03-08 00:32:00,40.0,40.0,-100.00,North,-999,0.0,-999.0,98,0.00,,,-99.99,,2013-03-08 06:32:00,
2013-03-08 00:42:00,40.0,40.0,-100.00,North,-999,0.0,-999.0,98,0.00,,,-99.99,,2013-03-08 06:42:00,
2013-03-08 01:22:00,39.0,39.0,-100.00,WNW,296,0.0,-999.0,98,0.00,,,-99.99,,2013-03-08 07:22:00,
2013-03-08 01:32:00,39.0,39.0,-100.00,WNW,296,0.0,-999.0,98,0.00,,,-99.99,,2013-03-08 07:32:00,
2013-03-08 01:42:00,39.0,39.0,-100.00,WNW,296,0.0,-999.0,98,0.00,,,-99.99,,2013-03-08 07:42:00,
2013-03-08 02:11:00,38.0,38.0,-100.00,North,-999,0.0,-999.0,98,0.00,,,-99.99,,2013-03-08 08:11:00,
2013-03-08 02:22:00,38.0,38.0,-100.00,North,-999,0.0,-999.0,98,0.00,,,-99.99,,2013-03-08 08:22:00,
2013-03-08 02:32:00,38.0,38.0,-100.00,North,-999,0.0,-999.0,98,0.00,,,-99.99,,2013-03-08 08:32:00,
2013-03-08 02:42:00,38.0,38.0,-100.00,North,-999,0.0,-999.0,98,0.00,,,-99.99,,2013-03-08 08:42:00,
2013-03-08 03:21:00,37.0,37.0,-100.00,NW,306,0.0,-999.0,99,0.00,,,-99.99,,2013-03-08 09:21:00,
2013-03-08 03:32:00,37.0,37.0,-100.00,NW,306,0.0,-999.0,99,0.00,,,-99.99,,2013-03-08 09:32:00,
2013-03-08 03:42:00,37.0,37.0,-100.00,NW,306,0.0,-999.0,99,0.00,,,-99.99,,2013-03-08 09:42:00,
2013-03-08 04:21:00,36.0,36.0,-100.00,West,279,0.0,-999.0,99,0.00,,,-99.99,,2013-03-08 10:21:00,
2013-03-08 04:32:00,36.0,36.0,-100.00,West,279,0.0,-999.0,99,0.00,,,-99.99,,2013-03-08 10:32:00,
2013-03-08 04:42:00,36.0,36.0,-100.00,West,279,0.0,-999.0,99,0.00,,,-99.99,,2013-03-08 10:42:00,
2013-03-08 05:21:00,36.0,36.0,-100.00,NNW,330,1.0,-999.0,99,0.00,,,-99.99,,2013-03-08 11:21:00,
2013-03-08 05:32:00,36.0,36.0,-100.00,NNW,330,1.0,-999.0,99,0.00,,,-99.99,,2013-03-08 11:32:00,
2013-03-08 05:42:00,36.0,36.0,-100.00,NNW,330,1.0,-999.0,99,0.00,,,-99.99,,2013-03-08 11:42:00,
2013-03-08 06:22:00,35.0,35.0,-100.00,WNW,293,0.0,-999.0,99,0.00,,,-99.99,,2013-03-08 12:22:00,
2013-03-08 06:32:00,35.0,35.0,-100.00,WNW,293,0.0,-999.0,99,0.00,,,-99.99,,2013-03-08 12:32:00,
2013-03-08 06:43:00,35.0,35.0,-100.00,WNW,293,0.0,-999.0,99,0.00,,,-99.99,,2013-03-08 12:43:00,
2013-03-08 07:22:00,36.0,36.0,-100.00,WNW,284,0.0,-999.0,99,0.00,,,-99.99,,2013-03-08 13:22:00,
2013-03-08 07:32:00,36.0,36.0,-100.00,WNW,284,0.0,-999.0,99,0.00,,,-99.99,,2013-03-08 13:32:00,
2013-03-08 07:42:00,36.0,36.0,-100.00,WNW,284,0.0,-999.0,99,0.00,,,-99.99,,2013-03-08 13:42:00,
2013-03-08 08:22:00,41.0,40.0,-100.00,North,1,1.0,-999.0,98,0.00,,,-99.99,,2013-03-08 14:22:00,
2013-03-08 08:32:00,41.0,40.0,-100.00,North,1,1.0,-999.0,98,0.00,,,-99.99,,2013-03-08 14:32:00,
2013-03-08 08:42:00,41.0,40.0,-100.00,North,1,1.0,-999.0,98,0.00,,,-99.99,,2013-03-08 14:42:00,
2013-03-08 09:22:00,50.0,39.0,-100.00,North,8,2.0,-999.0,66,0.00,,,-99.99,,2013-03-08 15:22:00,
2013-03-08 09:32:00,50.0,39.0,-100.00,North,8,2.0,-999.0,66,0.00,,,-99.99,,2013-03-08 15:32:00,
2013-03-08 09:42:00,50.0,39.0,-100.00,North,8,2.0,-999.0,66,0.00,,,-99.99,,2013-03-08 15:42:00,
2013-03-08 10:11:00,58.0,34.0,-100.00,East,82,3.0,-999.0,41,-99.99,,,-99.99,,2013-03-08 16:11:00,
2013-03-08 10:22:00,58.0,34.0,-100.00,East,82,3.0,-999.0,41,0.00,,,-99.99,,2013-03-08 16:22:00,
2013-03-08 10:32:00,58.0,34.0,-100.00,East,82,3.0,-999.0,41,0.00,,,-99.99,,2013-03-08 16:32:00,
2013-03-08 10:42:00,58.0,34.0,-100.00,East,82,3.0,-999.0,41,0.00,,,-99.99,,2013-03-08 16:42:00,
2013-03-08 11:11:00,62.0,32.0,-100.00,NE,54,3.0,-999.0,32,-99.99,,,-99.99,,2013-03-08 17:11:00,
2013-03-08 11:21:00,62.0,32.0,-100.00,NE,54,3.0,-999.0,32,0.00,,,-99.99,,2013-03-08 17:21:00,
2013-03-08 11:32:00,62.0,32.0,-100.00,NE,54,3.0,-999.0,32,0.00,,,-99.99,,2013-03-08 17:32:00,
2013-03-08 11:42:00,62.0,32.0,-100.00,NE,54,3.0,-999.0,32,0.00,,,-99.99,,2013-03-08 17:42:00,
2013-03-08 12:21:00,65.0,34.0,-100.00,NNE,33,2.0,-999.0,31,0.00,,,-99.99,,2013-03-08 18:21:00,
2013-03-08 12:32:00,65.0,34.0,-100.00,NNE,33,2.0,-999.0,31,0.00,,,-99.99,,2013-03-08 18:32:00,
2013-03-08 12:42:00,65.0,34.0,-100.00,NNE,33,2.0,-999.0,31,0.00,,,-99.99,,2013-03-08 18:42:00,
2013-03-08 13:22:00,69.0,35.0,-100.00,SW,224,2.0,-999.0,29,0.00,,,-99.99,,2013-03-08 19:22:00,
2013-03-08 13:32:00,69.0,35.0,-100.00,SW,224,2.0,-999.0,29,0.00,,,-99.99,,2013-03-08 19:32:00,
2013-03-08 13:42:00,69.0,35.0,-100.00,SW,224,2.0,-999.0,29,0.00,,,-99.99,,2013-03-08 19:42:00,
2013-03-08 14:21:00,68.0,37.0,-100.00,SW,235,2.0,-999.0,32,0.00,,,-99.99,,2013-03-08 20:21:00,
2013-03-08 14:32:00,68.0,37.0,-100.00,SW,235,2.0,-999.0,32,0.00,,,-99.99,,2013-03-08 20:32:00,
2013-03-08 14:42:00,68.0,37.0,-100.00,SW,235,2.0,-999.0,32,0.00,,,-99.99,,2013-03-08 20:42:00,
2013-03-08 15:22:00,67.0,41.0,-100.00,South,186,2.0,-999.0,39,0.00,,,-99.99,,2013-03-08 21:22:00,
2013-03-08 15:32:00,67.0,41.0,-100.00,South,186,2.0,-999.0,39,0.00,,,-99.99,,2013-03-08 21:32:00,
2013-03-08 15:42:00,67.0,41.0,-100.00,South,186,2.0,-999.0,39,0.00,,,-99.99,,2013-03-08 21:42:00,
2013-03-08 16:22:00,62.0,42.0,-100.00,South,184,1.0,-999.0,49,0.00,,,-99.99,,2013-03-08 22:22:00,
2013-03-08 16:32:00,62.0,42.0,-100.00,South,184,1.0,-999.0,49,0.00,,,-99.99,,2013-03-08 22:32:00,
2013-03-08 16:42:00,62.0,42.0,-100.00,South,184,1.0,-999.0,49,0.00,,,-99.99,,2013-03-08 22:42:00,
2013-03-08 17:22:00,61.0,45.0,-100.00,SSW,192,1.0,-999.0,56,0.00,,,-99.99,,2013-03-08 23:22:00,
2013-03-08 17:32:00,61.0,45.0,-100.00,SSW,192,1.0,-999.0,56,0.00,,,-99.99,,2013-03-08 23:32:00,
2013-03-08 17:42:00,61.0,45.0,-100.00,SSW,192,1.0,-999.0,56,0.00,,,-99.99,,2013-03-08 23:42:00,
2013-03-08 18:22:00,58.0,46.0,-100.00,South,182,0.0,-999.0,63,0.00,,,-99.99,,2013-03-09 00:22:00,
2013-03-08 18:32:00,58.0,46.0,-100.00,South,182,0.0,-999.0,63,0.00,,,-99.99,,2013-03-09 00:32:00,
2013-03-08 18:42:00,58.0,46.0,-100.00,South,182,0.0,-999.0,63,0.00,,,-99.99,,2013-03-09 00:42:00,
2013-03-08 19:22:00,56.0,47.0,-100.00,WSW,258,0.0,-999.0,73,0.00,,,-99.99,,2013-03-09 01:22:00,
2013-03-08 19:32:00,56.0,47.0,-100.00,WSW,258,0.0,-999.0,73,0.00,,,-99.99,,2013-03-09 01:32:00,
2013-03-08 19:42:00,56.0,47.0,-100.00,WSW,258,0.0,-999.0,73,0.00,,,-99.99,,2013-03-09 01:42:00,
2013-03-08 20:21:00,53.0,48.0,-100.00,North,-999,0.0,-999.0,84,0.00,,,-99.99,,2013-03-09 02:21:00,
2013-03-08 20:31:00,53.0,48.0,-100.00,North,-999,0.0,-999.0,84,0.00,,,-99.99,,2013-03-09 02:31:00,
2013-03-08 20:41:00,53.0,48.0,-100.00,North,-999,0.0,-999.0,84,0.00,,,-99.99,,2013-03-09 02:41:00,
2013-03-08 21:21:00,51.0,48.0,-100.00,North,-999,0.0,-999.0,90,0.00,,,-99.99,,2013-03-09 03:21:00,
2013-03-08 21:31:00,51.0,48.0,-100.00,North,-999,0.0,-999.0,90,0.00,,,-99.99,,2013-03-09 03:31:00,
2013-03-08 21:41:00,51.0,48.0,-100.00,North,-999,0.0,-999.0,90,0.00,,,-99.99,,2013-03-09 03:41:00,
2013-03-08 22:22:00,48.0,47.0,-100.00,NW,314,0.0,-999.0,94,0.00,,,-99.99,,2013-03-09 04:22:00,
2013-03-08 22:32:00,48.0,47.0,-100.00,NW,314,0.0,-999.0,94,0.00,,,-99.99,,2013-03-09 04:32:00,
2013-03-08 22:42:00,48.0,47.0,-100.00,NW,314,0.0,-999.0,94,0.00,,,-99.99,,2013-03-09 04:42:00,
2013-03-08 23:22:00,47.0,46.0,-100.00,NW,317,0.0,-999.0,96,0.00,,,-99.99,,2013-03-09 05:22:00,
2013-03-08 23:32:00,47.0,46.0,-100.00,NW,317,0.0,-999.0,96,0.00,,,-99.99,,2013-03-09 05:32:00,
2013-03-08 23:42:00,47.0,46.0,-100.00,NW,317,0.0,-999.0,96,0.00,,,-99.99,,2013-03-09 05:42:00,